COSMOS 2237

Satellite information

Favourite Embed

Satellite Type and Status

PAYLOADIN ORBIT

Key statistics

Satellite COSMOS 2237 at a glance.

Uptime

11790

Days in orbit

Revolutions

≈ 14.1

Per day

Orbit

LEO

Low Earth Orbit

Inclination

70.8

Latest

Satellite identification and parameters

Extended collection of information and parameters for COSMOS 2237.

Object identification

Identified? True

Debris? False

Object name: COSMOS 2237

International designator: 1993-016A

Object number (NORAD): 22565

Object ID (CCSDS): 22565

Country: COMMONWEALTH OF INDEPENDENT STATES (CIS)

Current information (Y/N): Y

RCS size: LARGE

Orbital parameters

Period: 101.95 minutes

Inclination: 70.7876 deg

SMA: 7229.131 km

Apoapsis: 854.807 km

Periapsis: 847.185 km

RAAN: 325.728 deg

Eccentricy: 0.0005272

Argument of periapsis: 39.5242 deg

Mean anomaly: 320.6262 deg

Mean motion: 14.12451822 rev/day

Mean motion (dot): -0.00000297 rev/day2

B* drag term: -0.00013423 1/REarth

Two-line elements (TLE)

Creation date: July 5, 2025, 10:56 p.m.

Reference frame: TEME

Reference center: EARTH

Epoch: July 5, 2025, 5:49 p.m. UTC

TLE line 0: 0 COSMOS 2237

TLE line 1: 1 22565U 93016A 25186.74304554 -.00000297 00000-0 -13423-3 0 9999

TLE line 2: 2 22565 70.7876 325.7280 0005272 39.5242 320.6262 14.12451822664709

Live tracking on map

Real-time ground track for satellite COSMOS 2237.

In-orbit conjunctions

A list of the most updated potential collisions computed for object COSMOS 2237.

Target Orbit TCA Probability of collision Miss distance Type
FENGYUN 1C DEB SSO 2025-06-07 22:01:25 0.0004925236 112.0 (m) DEBRIS
CZ-6A DEB SSO 2025-06-05 21:52:13 0.0001622201 718.0 (m) DEBRIS
CZ-6A DEB SSO 2025-05-05 18:43:57 0.0001336306 911.0 (m) DEBRIS
CZ-4 DEB SSO 2025-04-02 23:59:23 0.001334624 136.0 (m) DEBRIS
COSMOS 1943 LEO 2025-02-23 05:27:55 0.0001124009 562.0 (m) PAYLOAD

Associated space launch

Second generation ELING satellite

COSMOS 2237 was lifted into orbit during the mission ‘Zenit-2 | Tselina-2 13’, on board a Zenit-2 space rocket.

The launch took place on March 26, 1993, 2:21 a.m. from 45/1.

For more information about the launch, click the button.

Launch to space Zenit-2 | Tselina-2 13
Zenit-2 | Tselina-2 13

Agency: N/A

Status: Launch Successful

Launch date: March 26, 1993, 2:21 a.m. UTC

Rocket: Zenit-2

Launch pad: 45/1

Location: Baikonur Cosmodrome, Republic of Kazakhstan

...

Latest news about this satellite

There are no fresh news available about this satellite. Check back as we update our databases every day.


Newsletter sign-up

Weekly statistics, charts and insights to help you stay on top of the space industry.